Home > Weather > Stephenville > Past weeks

Flag for Canada Past Weather in Stephenville, Newfoundland and Labrador, Canada — Yesterday and Last 2 Weeks

Now
59 °F

Passing clouds.


Feels Like: 60 °F
Forecast: 45 / 65 °F
Wind: 3 mph from Southwest

Location: Stephenville

Current Time: Jun 25, 2016 at 9:55:20 AM

Latest Report: Jun 25, 2016 at 9:30 AM


Visibility: 15 mi

Pressure: 30.19 "Hg

Humidity: 59%

Dew Point: 45 °F

Location of StephenvilleLocation

Past Weather in Stephenville — Graph

°F

Stephenville Temperature Yesterday

Maximum temperature yesterday: 57 °F (at 2:30 PM)
Minimum temperature yesterday: 48 °F (at 9:30 PM)
Average temperature yesterday: 52 °F

High & Low Weather Summary for the Past Weeks

 TemperatureHumidityPressure
High75 °F (Jun 21, 1:30 PM)100% (Jun 15, 2:30 PM)30.19 "Hg (Jun 15, 2:30 PM)
Low41 °F (Jun 25, 5:30 AM)33% (Jun 12, 3:30 PM)29.49 "Hg (Jun 10, 8:30 AM)
Average53 °F81%29.78 "Hg
* Reported Jun 10 8:30 AM — Jun 25 8:30 AM, Stephenville, Weather by CustomWeather, © 2016

Note: Actual official high and low records may vary slightly from our data, if they occured in-between our weather recording intervals... More about our weather records

Advertising

Stephenville Weather History for the Previous 24 Hours

Scroll right to see more
 ConditionsComfort  
Time TempWeatherWind HumidityBarometerVisibility
8:30 AM
Sat, Jun 25
55 °FSunny.No wind72%30.19 "Hg15 mi
7:30 AM52 °FPassing clouds.3 mph82%30.19 "Hg15 mi
6:30 AM45 °FPassing clouds.3 mph93%30.17 "Hg15 mi
5:30 AM41 °FPassing clouds.5 mph100%30.15 "Hg15 mi
4:30 AM43 °FClear.2 mph100%30.14 "Hg15 mi
3:30 AM45 °FClear.2 mph93%30.12 "Hg15 mi
2:30 AM45 °FClear.6 mph93%30.11 "Hg15 mi
1:30 AM46 °FPassing clouds.2 mph93%30.11 "Hg15 mi
12:30 AM45 °FClear.3 mph100%30.11 "Hg15 mi
11:30 PM
Fri, Jun 24
48 °FPassing clouds.2 mph94%30.08 "Hg15 mi
10:30 PM48 °FPassing clouds.2 mph94%30.07 "Hg15 mi
9:30 PM48 °FScattered clouds.7 mph94%30.04 "Hg15 mi
8:30 PM50 °FScattered clouds.8 mph94%30.01 "Hg15 mi
7:30 PM50 °FMore clouds than sun.10 mph94%30.00 "Hg12 mi
6:30 PM50 °FFog.14 mph94%29.97 "Hg1 mi
6:24 PM50 °FFog.13 mph100%29.97 "Hg1 mi
5:30 PM54 °FFog.13 mph88%29.96 "Hg3 mi
4:30 PM55 °FFog.13 mph88%29.95 "Hg3 mi
3:30 PM55 °FScattered clouds.17 mph88%29.93 "Hg15 mi
2:30 PM57 °FBroken clouds.12 mph82%29.91 "Hg12 mi
1:30 PM54 °FBroken clouds.10 mph88%29.91 "Hg12 mi
12:30 PM54 °FBroken clouds.7 mph88%29.91 "Hg15 mi
11:30 AM54 °FPartly sunny.8 mph88%29.91 "Hg12 mi
11:19 AM52 °FCloudy.10 mph94%29.92 "Hg12 mi
10:30 AM52 °FMostly cloudy.7 mph94%29.90 "Hg12 mi
9:30 AM52 °FMostly cloudy.8 mph100%29.89 "Hg8 mi
9:16 AM54 °FMostly cloudy.7 mph94%29.88 "Hg8 mi
Weather by CustomWeather, © 2016

See weather overviewHow to use our weather pages